Regional Weather Roundup
Issued by NWS

Home | Current Version | Previous Version | Text Only | Print | Product List | Glossary Off
Versions: 1 2 3 4 5 6 7 8 9 10 11 12 13 14 15 16 17 18 19 20 21 22 23 24 25 26 27 28 29 30 31 32 33 34 35 36 37 38 39 40 41 42 43 44 45 46 47 48 49 50

000
ASUS43 KOAX 030102
RWRNE

WEATHER ROUNDUP FOR NEBRASKA
NATIONAL WEATHER SERVICE OMAHA NE
700 PM CST MON MAR 02 2015

NOTES: SATELLITE DATA IS BEING USED TO AUGMENT CLOUD COVER ABOVE
       12000 FEET.
       "FAIR" INDICATES FEW OR NO CLOUDS BELOW 12,000 FEET WITH NO
       SIGNIFICANT WEATHER AND/OR OBSTRUCTIONS TO VISIBILITY.

  * THESE STATIONS DO NOT REPORT WEATHER SUCH AS RAIN...SNOW OR FOG.

NEZ001>004-019>022-054>056-030200-
NEBRASKA PANHANDLE

CITY           SKY/WX    TMP DP  RH WIND       PRES   REMARKS
SCOTTSBLUFF      N/A     35  24  64 SE16      29.64F WCI  25
ALLIANCE       MOCLDY    29  23  78 SE15      29.68F WCI  18
CHADRON        MOCLDY    39  24  55 SE9       29.66F WCI  33
KIMBALL        CLOUDY    31  26  81 SE9       29.60F WCI  23
SIDNEY         CLOUDY    29  24  82 SE13      29.67F WCI  19
$$

NEZ057>060-069>072-079>082-030200-
SOUTHWEST NEBRASKA

CITY           SKY/WX    TMP DP  RH WIND       PRES   REMARKS
NORTH PLATTE   CLOUDY    31  22  69 S14G23    29.82F WCI  21
IMPERIAL         N/A     30  25  81 S15       29.77F WCI  19
LEXINGTON      CLOUDY    32  21  62 S22G28    29.87F WCI  20
MCCOOK         CLOUDY    33  23  66 S14       29.85F WCI  23
$$

NEZ005>010-023>029-035>040-094-030200-
NORTH CENTRAL NEBRASKA

CITY           SKY/WX    TMP DP  RH WIND       PRES   REMARKS
VALENTINE      MOCLDY    36  20  52 S16       29.78F WCI  26
AINSWORTH      MOCLDY    34  19  55 S18       29.80F WCI  23
BROKEN BOW     CLOUDY    33  19  56 S13G26    29.87F WCI  24
ORD            CLOUDY    33  14  45 S17G25    29.91F WCI  22
$$

NEZ041-046>049-061>064-073>077-083>087-030200-
SOUTH CENTRAL NEBRASKA

CITY           SKY/WX    TMP DP  RH WIND       PRES   REMARKS
GRAND ISLAND   CLOUDY    32  16  51 S14       29.97F WCI  22
HASTINGS       CLOUDY    32  14  47 S13       29.95F WCI  22
HEBRON         CLOUDY    33  16  49 S13       30.02F WCI  24
KEARNEY *      CLOUDY    30  14  51 S14       29.93F WCI  20
$$

NEZ011>018-030>034-042>045-030200-
NORTHEAST NEBRASKA

CITY           SKY/WX    TMP DP  RH WIND       PRES   REMARKS
NORFOLK        CLOUDY    36  18  48 S15       29.98F WCI  27
BLAIR          CLOUDY    37  21  53 SE13      30.06F WCI  28
COLUMBUS *     CLOUDY    36  16  44 SE15G22   30.02F WCI  26
FREMONT        CLOUDY    37  21  53 SE13      30.06S WCI  28
TEKAMAH        CLOUDY    35  22  58 SE13      30.07F WCI  26
$$

NEZ050>053-065>068-078-088>093-030200-
SOUTHEAST NEBRASKA

CITY           SKY/WX    TMP DP  RH WIND       PRES   REMARKS
LINCOLN        MOCLDY    36  18  48 S17       30.06F WCI  26
OMAHA EPPLEY   CLOUDY    36  21  54 SE16      30.09F WCI  26
FALLS CITY     CLOUDY    34  17  50 SE10      30.13F WCI  26
$$

NEZ044-045-051>053-067-030200-
OMAHA AREA

CITY           SKY/WX    TMP DP  RH WIND       PRES   REMARKS
OMAHA EPPLEY   CLOUDY    36  21  54 SE16      30.09F WCI  26
BLAIR          CLOUDY    37  21  53 SE13      30.06F WCI  28
FREMONT        CLOUDY    37  21  53 SE13      30.06S WCI  28
$$



USA.gov is the U.S. government's official web portal to all federal, state and local government web resources and services.